Year,Month,Day,Hour,Minute,Value (Times are PST for temperature in C)
2013,12,16,00,00,7.00
2013,12,16,00,01,7.00
2013,12,16,00,02,7.00
2013,12,16,00,03,7.00
2013,12,16,00,04,7.00
2013,12,16,00,05,7.00
2013,12,16,00,06,7.00
2013,12,16,00,07,7.00
2013,12,16,00,08,7.10
2013,12,16,00,09,7.10
2013,12,16,00,10,7.20
2013,12,16,00,11,7.20
2013,12,16,00,12,7.20
2013,12,16,00,13,7.30
2013,12,16,00,14,7.30
2013,12,16,00,15,7.30
2013,12,16,00,16,7.30
2013,12,16,00,17,7.30
2013,12,16,00,18,7.30
2013,12,16,00,19,7.30
2013,12,16,00,20,7.30
2013,12,16,00,21,7.30
2013,12,16,00,22,7.30
2013,12,16,00,23,7.30
2013,12,16,00,24,7.30
2013,12,16,00,25,7.30
2013,12,16,00,26,7.40
2013,12,16,00,27,7.40
2013,12,16,00,28,7.40
2013,12,16,00,29,7.50
2013,12,16,00,30,7.50
2013,12,16,00,31,7.60
2013,12,16,00,32,7.60
2013,12,16,00,33,7.60
2013,12,16,00,34,7.60
2013,12,16,00,35,7.60
2013,12,16,00,36,7.60
2013,12,16,00,37,7.60
2013,12,16,00,38,7.60
2013,12,16,00,39,7.60
2013,12,16,00,40,7.60
2013,12,16,00,41,7.70
2013,12,16,00,42,7.70
2013,12,16,00,43,7.70
2013,12,16,00,44,7.70
2013,12,16,00,45,7.70
2013,12,16,00,46,7.70
2013,12,16,00,47,7.70
2013,12,16,00,48,7.80
2013,12,16,00,49,7.80
2013,12,16,00,50,7.80
2013,12,16,00,51,7.80
2013,12,16,00,52,7.90
2013,12,16,00,53,7.90
2013,12,16,00,54,8.00
2013,12,16,00,55,8.00
2013,12,16,00,56,8.00
2013,12,16,00,57,8.00
2013,12,16,00,58,8.10
2013,12,16,00,59,8.10
2013,12,16,01,00,8.20
2013,12,16,01,01,8.20
2013,12,16,01,02,8.20
2013,12,16,01,03,8.20
2013,12,16,01,04,8.20
2013,12,16,01,05,8.20
2013,12,16,01,06,8.20
2013,12,16,01,07,8.20
2013,12,16,01,08,8.20
2013,12,16,01,09,8.20
2013,12,16,01,10,8.20
2013,12,16,01,11,8.10
2013,12,16,01,12,8.10
2013,12,16,01,13,8.00
2013,12,16,01,14,8.00
2013,12,16,01,15,7.90
2013,12,16,01,16,7.90
2013,12,16,01,17,7.80
2013,12,16,01,18,7.80
2013,12,16,01,19,7.70
2013,12,16,01,20,7.70
2013,12,16,01,21,7.60
2013,12,16,01,22,7.60
2013,12,16,01,23,7.50
2013,12,16,01,24,7.50
2013,12,16,01,25,7.40
2013,12,16,01,26,7.40
2013,12,16,01,27,7.30
2013,12,16,01,28,7.30
2013,12,16,01,29,7.20
2013,12,16,01,30,7.20
2013,12,16,01,31,7.20
2013,12,16,01,32,7.20
2013,12,16,01,33,7.20
2013,12,16,01,34,7.10
2013,12,16,01,35,7.10
2013,12,16,01,36,7.10
2013,12,16,01,37,7.00
2013,12,16,01,38,7.00
2013,12,16,01,39,6.90
2013,12,16,01,40,6.90
2013,12,16,01,41,6.90
2013,12,16,01,42,6.90
2013,12,16,01,43,6.90
2013,12,16,01,44,6.90
2013,12,16,01,45,6.90
2013,12,16,01,46,6.90
2013,12,16,01,47,6.90
2013,12,16,01,48,6.90
2013,12,16,01,49,6.90
2013,12,16,01,50,6.90
2013,12,16,01,51,7.00
2013,12,16,01,52,7.00
2013,12,16,01,53,7.10
2013,12,16,01,54,7.10
2013,12,16,01,55,7.10
2013,12,16,01,56,7.20
2013,12,16,01,57,7.20
2013,12,16,01,58,7.20
2013,12,16,01,59,7.20
2013,12,16,02,00,7.20
2013,12,16,02,01,7.20
2013,12,16,02,02,7.10
2013,12,16,02,03,7.10
2013,12,16,02,04,7.10
2013,12,16,02,05,7.10
2013,12,16,02,06,7.00
2013,12,16,02,07,7.00
2013,12,16,02,08,6.90
2013,12,16,02,09,6.90
2013,12,16,02,10,6.90
2013,12,16,02,11,6.90
2013,12,16,02,12,6.80
2013,12,16,02,13,6.80
2013,12,16,02,14,6.80
2013,12,16,02,15,6.80
2013,12,16,02,16,6.80
2013,12,16,02,17,6.80
2013,12,16,02,18,6.90
2013,12,16,02,19,6.80
2013,12,16,02,20,6.80
2013,12,16,02,21,6.80
2013,12,16,02,22,6.80
2013,12,16,02,23,6.80
2013,12,16,02,24,6.80
2013,12,16,02,25,6.80
2013,12,16,02,26,6.80
2013,12,16,02,27,6.80
2013,12,16,02,28,6.80
2013,12,16,02,29,6.70
2013,12,16,02,30,6.70
2013,12,16,02,31,6.70
2013,12,16,02,32,6.60
2013,12,16,02,33,6.60
2013,12,16,02,34,6.60
2013,12,16,02,35,6.50
2013,12,16,02,36,6.50
2013,12,16,02,37,6.40
2013,12,16,02,38,6.40
2013,12,16,02,39,6.40
2013,12,16,02,40,6.40
2013,12,16,02,41,6.30
2013,12,16,02,42,6.30
2013,12,16,02,43,6.20
2013,12,16,02,44,6.20
2013,12,16,02,45,6.10
2013,12,16,02,46,6.10
2013,12,16,02,47,6.00
2013,12,16,02,48,5.90
2013,12,16,02,49,5.80
2013,12,16,02,50,5.70
2013,12,16,02,51,5.70
2013,12,16,02,52,5.60
2013,12,16,02,53,5.60
2013,12,16,02,54,5.70
2013,12,16,02,55,5.70
2013,12,16,02,56,5.70
2013,12,16,02,57,5.80
2013,12,16,02,58,5.80
2013,12,16,02,59,5.80
2013,12,16,03,00,5.80
2013,12,16,03,01,5.90
2013,12,16,03,02,5.90
2013,12,16,03,03,5.90
2013,12,16,03,04,5.80
2013,12,16,03,05,5.80
2013,12,16,03,06,5.80
2013,12,16,03,07,5.70
2013,12,16,03,08,5.70
2013,12,16,03,09,5.60
2013,12,16,03,10,5.60
2013,12,16,03,11,5.50
2013,12,16,03,12,5.40
2013,12,16,03,13,5.30
2013,12,16,03,14,5.30
2013,12,16,03,15,5.30
2013,12,16,03,16,5.30
2013,12,16,03,17,5.30
2013,12,16,03,18,5.30
2013,12,16,03,19,5.30
2013,12,16,03,20,5.30
2013,12,16,03,21,5.30
2013,12,16,03,22,5.30
2013,12,16,03,23,5.30
2013,12,16,03,24,5.30
2013,12,16,03,25,5.30
2013,12,16,03,26,5.30
2013,12,16,03,27,5.30
2013,12,16,03,28,5.30
2013,12,16,03,29,5.20
2013,12,16,03,30,5.20
2013,12,16,03,31,5.10
2013,12,16,03,32,5.10
2013,12,16,03,33,5.20
2013,12,16,03,34,5.20
2013,12,16,03,35,5.20
2013,12,16,03,36,5.30
2013,12,16,03,37,5.30
2013,12,16,03,38,5.30
2013,12,16,03,39,5.30
2013,12,16,03,40,5.40
2013,12,16,03,41,5.40
2013,12,16,03,42,5.50
2013,12,16,03,43,5.50
2013,12,16,03,44,5.40
2013,12,16,03,45,5.40
2013,12,16,03,46,5.40
2013,12,16,03,47,5.30
2013,12,16,03,48,5.30
2013,12,16,03,49,5.30
2013,12,16,03,50,5.20
2013,12,16,03,51,5.20
2013,12,16,03,52,5.10
2013,12,16,03,53,5.00
2013,12,16,03,54,4.90
2013,12,16,03,55,4.80
2013,12,16,03,56,4.80
2013,12,16,03,57,4.70
2013,12,16,03,58,4.70
2013,12,16,03,59,4.70
2013,12,16,04,00,4.70
2013,12,16,04,01,4.70
2013,12,16,04,02,4.70
2013,12,16,04,03,4.50
2013,12,16,04,04,4.40
2013,12,16,04,05,4.40
2013,12,16,04,06,4.40
2013,12,16,04,07,4.40
2013,12,16,04,08,4.40
2013,12,16,04,09,4.40
2013,12,16,04,10,4.40
2013,12,16,04,11,4.40
2013,12,16,04,12,4.40
2013,12,16,04,13,4.40
2013,12,16,04,14,4.40
2013,12,16,04,15,4.40
2013,12,16,04,16,4.40
2013,12,16,04,17,4.30
2013,12,16,04,18,4.30
2013,12,16,04,19,4.30
2013,12,16,04,20,4.20
2013,12,16,04,21,4.20
2013,12,16,04,22,4.20
2013,12,16,04,23,4.20
2013,12,16,04,24,4.20
2013,12,16,04,25,4.20
2013,12,16,04,26,4.20
2013,12,16,04,27,4.20
2013,12,16,04,28,4.10
2013,12,16,04,29,4.10
2013,12,16,04,30,4.00
2013,12,16,04,31,4.00
2013,12,16,04,32,3.90
2013,12,16,04,33,3.90
2013,12,16,04,34,3.80
2013,12,16,04,35,3.80
2013,12,16,04,36,3.80
2013,12,16,04,37,3.70
2013,12,16,04,38,3.70
2013,12,16,04,39,3.70
2013,12,16,04,40,3.60
2013,12,16,04,41,3.60
2013,12,16,04,42,3.60
2013,12,16,04,43,3.60
2013,12,16,04,44,3.60
2013,12,16,04,45,3.60
2013,12,16,04,46,3.60
2013,12,16,04,47,3.60
2013,12,16,04,48,3.50
2013,12,16,04,49,3.50
2013,12,16,04,50,3.40
2013,12,16,04,51,3.40
2013,12,16,04,52,3.30
2013,12,16,04,53,3.30
2013,12,16,04,54,3.20
2013,12,16,04,55,3.20
2013,12,16,04,56,3.10
2013,12,16,04,57,3.10
2013,12,16,04,58,3.10
2013,12,16,04,59,3.00
2013,12,16,05,00,3.00
2013,12,16,05,01,2.90
2013,12,16,05,02,2.80
2013,12,16,05,03,2.80
2013,12,16,05,04,2.80
2013,12,16,05,05,2.80
2013,12,16,05,06,2.80
2013,12,16,05,07,2.80
2013,12,16,05,08,2.80
2013,12,16,05,09,2.80
2013,12,16,05,10,2.80
2013,12,16,05,11,2.70
2013,12,16,05,12,2.60
2013,12,16,05,13,2.60
2013,12,16,05,14,2.60
2013,12,16,05,15,2.60
2013,12,16,05,16,2.60
2013,12,16,05,17,2.60
2013,12,16,05,18,2.60
2013,12,16,05,19,2.60
2013,12,16,05,20,2.60
2013,12,16,05,21,2.50
2013,12,16,05,22,2.50
2013,12,16,05,23,2.50
2013,12,16,05,24,2.40
2013,12,16,05,25,2.40
2013,12,16,05,26,2.40
2013,12,16,05,27,2.40
2013,12,16,05,28,2.40
2013,12,16,05,29,2.40
2013,12,16,05,30,2.40
2013,12,16,05,31,2.40
2013,12,16,05,32,2.40
2013,12,16,05,33,2.30
2013,12,16,05,34,2.30
2013,12,16,05,35,2.30
2013,12,16,05,36,2.30
2013,12,16,05,37,2.20
2013,12,16,05,38,2.20
2013,12,16,05,39,2.20
2013,12,16,05,40,2.10
2013,12,16,05,41,2.10
2013,12,16,05,42,2.10
2013,12,16,05,43,2.00
2013,12,16,05,44,2.00
2013,12,16,05,45,1.90
2013,12,16,05,46,1.90
2013,12,16,05,47,1.90
2013,12,16,05,48,1.90
2013,12,16,05,49,1.90
2013,12,16,05,50,1.90
2013,12,16,05,51,1.80
2013,12,16,05,52,1.80
2013,12,16,05,53,1.80
2013,12,16,05,54,1.80
2013,12,16,05,55,1.80
2013,12,16,05,56,1.80
2013,12,16,05,57,1.80
2013,12,16,05,58,1.80
2013,12,16,05,59,1.80
2013,12,16,06,00,1.80
2013,12,16,06,01,1.80
2013,12,16,08,51,1.30
2013,12,16,08,52,1.30
2013,12,16,08,53,1.30
2013,12,16,08,54,1.30
2013,12,16,08,55,1.40
2013,12,16,08,56,1.40
2013,12,16,08,57,1.40
2013,12,16,08,58,1.50
2013,12,16,08,59,1.50
2013,12,16,09,00,1.50
2013,12,16,09,01,1.60
2013,12,16,09,02,1.60
2013,12,16,09,03,1.60
2013,12,16,09,04,1.60
2013,12,16,09,05,1.70
2013,12,16,09,06,1.70
2013,12,16,09,07,1.70
2013,12,16,09,08,1.70
2013,12,16,09,09,1.70
2013,12,16,09,10,1.70
2013,12,16,09,11,1.70
2013,12,16,09,12,1.70
2013,12,16,09,13,1.70
2013,12,16,09,14,1.70
2013,12,16,09,15,1.70
2013,12,16,09,16,1.70
2013,12,16,09,17,1.70
2013,12,16,09,18,1.70
2013,12,16,09,19,1.80
2013,12,16,09,20,1.80
2013,12,16,09,21,1.80
2013,12,16,09,22,1.80
2013,12,16,09,23,1.90
2013,12,16,09,24,1.90
2013,12,16,09,25,1.90
2013,12,16,09,26,2.00
2013,12,16,09,27,2.00
2013,12,16,09,28,2.10
2013,12,16,09,29,2.10
2013,12,16,09,30,2.20
2013,12,16,09,31,2.20
2013,12,16,09,32,2.30
2013,12,16,09,33,2.30
2013,12,16,09,34,2.40
2013,12,16,09,35,2.50
2013,12,16,09,36,2.50
2013,12,16,09,37,2.60
2013,12,16,09,38,2.60
2013,12,16,09,39,2.70
2013,12,16,09,40,2.70
2013,12,16,09,41,2.70
2013,12,16,09,42,2.70
2013,12,16,09,43,2.70
2013,12,16,09,44,2.70
2013,12,16,09,45,2.70
2013,12,16,09,46,2.70
2013,12,16,09,47,2.70
2013,12,16,09,48,2.70
2013,12,16,09,49,2.80
2013,12,16,09,50,2.80
2013,12,16,09,51,2.90
2013,12,16,09,52,3.00
2013,12,16,09,53,3.00
2013,12,16,09,54,3.10
2013,12,16,09,55,3.10
2013,12,16,09,56,3.20
2013,12,16,09,57,3.20
2013,12,16,09,58,3.20
2013,12,16,09,59,3.20
2013,12,16,10,00,3.30
2013,12,16,10,01,3.30
2013,12,16,10,02,3.30
2013,12,16,10,03,3.40
2013,12,16,10,04,3.40
2013,12,16,10,05,3.40
2013,12,16,10,06,3.40
2013,12,16,10,07,3.50
2013,12,16,10,08,3.50
2013,12,16,10,09,3.50
2013,12,16,10,10,3.60
2013,12,16,10,11,3.60
2013,12,16,10,12,3.60
2013,12,16,10,13,3.70
2013,12,16,10,14,3.70
2013,12,16,10,15,3.70
2013,12,16,10,16,3.80
2013,12,16,10,17,3.80
2013,12,16,10,18,3.80
2013,12,16,10,19,3.90
2013,12,16,10,20,3.90
2013,12,16,10,21,4.00
2013,12,16,10,22,4.10
2013,12,16,10,23,4.10
2013,12,16,10,24,4.20
2013,12,16,10,25,4.30
2013,12,16,10,26,4.30
2013,12,16,10,27,4.30
2013,12,16,10,28,4.40
2013,12,16,10,29,4.40
2013,12,16,10,30,4.50
2013,12,16,10,31,4.60
2013,12,16,10,32,4.60
2013,12,16,10,33,4.70
2013,12,16,10,34,4.70
2013,12,16,10,35,4.80
2013,12,16,10,36,4.80
2013,12,16,10,37,4.80
2013,12,16,10,38,4.90
2013,12,16,10,39,4.90
2013,12,16,10,40,5.00
2013,12,16,10,41,5.10
2013,12,16,10,42,5.10
2013,12,16,10,43,5.10
2013,12,16,10,44,5.10
2013,12,16,10,45,5.10
2013,12,16,10,46,5.20
2013,12,16,10,47,5.20
2013,12,16,10,48,5.20
2013,12,16,10,49,5.30
2013,12,16,10,50,5.30
2013,12,16,10,51,5.40
2013,12,16,10,52,5.40
2013,12,16,10,53,5.50
2013,12,16,10,54,5.60
2013,12,16,10,55,5.70
2013,12,16,10,56,5.70
2013,12,16,10,57,5.80
2013,12,16,10,58,5.90
2013,12,16,10,59,5.90
2013,12,16,11,00,6.00
2013,12,16,11,01,6.00
2013,12,16,11,02,6.10
2013,12,16,11,03,6.10
2013,12,16,11,04,6.10
2013,12,16,11,05,6.20
2013,12,16,11,06,6.20
2013,12,16,11,07,6.20
2013,12,16,11,08,6.30
2013,12,16,11,09,6.30
2013,12,16,11,10,6.30
2013,12,16,11,11,6.30
2013,12,16,11,12,6.40
2013,12,16,11,13,6.40
2013,12,16,11,14,6.40
2013,12,16,11,15,6.40
2013,12,16,11,16,6.40
2013,12,16,11,17,6.40
2013,12,16,11,18,6.40
2013,12,16,11,19,6.40
2013,12,16,11,20,6.40
2013,12,16,11,21,6.40
2013,12,16,11,22,6.50
2013,12,16,11,23,6.50
2013,12,16,11,24,6.50
2013,12,16,11,25,6.50
2013,12,16,11,26,6.50
2013,12,16,11,27,6.50
2013,12,16,11,28,6.60
2013,12,16,11,29,6.60
2013,12,16,11,30,6.60
2013,12,16,11,31,6.60
2013,12,16,11,32,6.60
2013,12,16,11,33,6.60
2013,12,16,11,34,6.60
2013,12,16,11,35,6.60
2013,12,16,11,36,6.60
2013,12,16,11,37,6.60
2013,12,16,11,38,6.60
2013,12,16,11,39,6.60
2013,12,16,11,40,6.60
2013,12,16,11,41,6.60
2013,12,16,11,42,6.60
2013,12,16,11,43,6.60
2013,12,16,11,44,6.60
2013,12,16,11,45,6.60
2013,12,16,11,46,6.60
2013,12,16,11,47,6.60
2013,12,16,11,48,6.60
2013,12,16,11,49,6.60
2013,12,16,11,50,6.60
2013,12,16,11,51,6.70
2013,12,16,11,52,6.70
2013,12,16,11,53,6.70
2013,12,16,11,54,6.70
2013,12,16,11,55,6.70
2013,12,16,11,56,6.70
2013,12,16,11,57,6.80
2013,12,16,11,58,6.80
2013,12,16,11,59,6.80
2013,12,16,12,00,6.80
2013,12,16,12,01,6.80
2013,12,16,12,02,6.80
2013,12,16,12,03,6.80
2013,12,16,12,04,6.80
2013,12,16,12,05,6.80
2013,12,16,12,06,6.80
2013,12,16,12,07,6.80
2013,12,16,12,08,6.80
2013,12,16,12,09,6.80
2013,12,16,12,10,6.80
2013,12,16,12,11,6.80
2013,12,16,12,12,6.80
2013,12,16,12,13,6.80
2013,12,16,12,14,6.90
2013,12,16,12,15,6.90
2013,12,16,12,16,6.90
2013,12,16,12,17,6.90
2013,12,16,12,18,6.90
2013,12,16,12,19,7.00
2013,12,16,12,20,7.00
2013,12,16,12,21,7.10
2013,12,16,12,22,7.10
2013,12,16,12,23,7.10
2013,12,16,12,24,7.10
2013,12,16,12,25,7.10
2013,12,16,12,26,7.20
2013,12,16,12,27,7.20
2013,12,16,12,28,7.20
2013,12,16,12,29,7.20
2013,12,16,12,30,7.20
2013,12,16,12,31,7.20
2013,12,16,12,32,7.20
2013,12,16,12,33,7.20
2013,12,16,12,34,7.30
2013,12,16,12,35,7.30
2013,12,16,12,36,7.30
2013,12,16,12,37,7.30
2013,12,16,12,38,7.30
2013,12,16,12,39,7.30
2013,12,16,12,40,7.30
2013,12,16,12,41,7.40
2013,12,16,12,42,7.40
2013,12,16,12,43,7.40
2013,12,16,12,44,7.50
2013,12,16,12,45,7.50
2013,12,16,12,46,7.60
2013,12,16,12,47,7.60
2013,12,16,12,48,7.70
2013,12,16,12,49,7.70
2013,12,16,12,50,7.80
2013,12,16,12,51,7.80
2013,12,16,12,52,7.80
2013,12,16,12,53,7.90
2013,12,16,12,54,7.90
2013,12,16,12,55,8.00
2013,12,16,12,56,8.00
2013,12,16,12,57,8.10
2013,12,16,12,58,8.10
2013,12,16,12,59,8.10
2013,12,16,13,00,8.10
2013,12,16,13,01,8.20
2013,12,16,13,02,8.20
2013,12,16,13,03,8.30
2013,12,16,13,04,8.40
2013,12,16,13,05,8.40
2013,12,16,13,06,8.50
2013,12,16,13,07,8.60
2013,12,16,13,08,8.60
2013,12,16,13,09,8.70
2013,12,16,13,10,8.80
2013,12,16,13,11,8.90
2013,12,16,13,12,8.90
2013,12,16,13,13,9.00
2013,12,16,13,14,9.10
2013,12,16,13,15,9.20
2013,12,16,13,16,9.20
2013,12,16,13,17,9.30
2013,12,16,13,18,9.30
2013,12,16,13,19,9.30
2013,12,16,13,20,9.30
2013,12,16,13,21,9.30
2013,12,16,13,22,9.30
2013,12,16,13,23,9.30
2013,12,16,13,24,9.20
2013,12,16,13,25,9.20
2013,12,16,13,26,9.20
2013,12,16,13,27,9.20
2013,12,16,13,28,9.10
2013,12,16,13,29,9.10
2013,12,16,13,30,9.10
2013,12,16,13,31,9.10
2013,12,16,13,32,9.10
2013,12,16,13,33,9.10
2013,12,16,13,34,9.10
2013,12,16,13,35,9.10
2013,12,16,13,36,9.10
2013,12,16,13,37,9.10
2013,12,16,13,38,9.10
2013,12,16,13,39,9.00
2013,12,16,13,40,9.00
2013,12,16,13,41,9.00
2013,12,16,13,42,9.00
2013,12,16,13,43,8.90
2013,12,16,13,44,8.90
2013,12,16,13,45,8.90
2013,12,16,13,46,8.90
2013,12,16,13,47,8.90
2013,12,16,13,48,8.90
2013,12,16,13,49,8.80
2013,12,16,13,50,8.80
2013,12,16,13,51,8.80
2013,12,16,13,52,8.80
2013,12,16,13,53,8.80
2013,12,16,13,54,8.80
2013,12,16,13,55,8.80
2013,12,16,13,56,8.90
2013,12,16,13,57,8.90
2013,12,16,13,58,8.90
2013,12,16,13,59,8.90
2013,12,16,14,00,8.90
2013,12,16,14,01,9.00
2013,12,16,14,02,9.00
2013,12,16,14,03,9.00
2013,12,16,14,04,9.00
2013,12,16,14,05,9.10
2013,12,16,14,06,9.10
2013,12,16,14,07,9.10
2013,12,16,14,08,9.10
2013,12,16,14,09,9.10
2013,12,16,14,10,9.20
2013,12,16,14,11,9.20
2013,12,16,14,12,9.20
2013,12,16,14,13,9.20
2013,12,16,14,14,9.20
2013,12,16,14,15,9.20
2013,12,16,14,16,9.20
2013,12,16,14,17,9.20
2013,12,16,14,18,9.30
2013,12,16,14,19,9.30
2013,12,16,14,20,9.30
2013,12,16,14,21,9.30
2013,12,16,14,22,9.30
2013,12,16,14,23,9.30
2013,12,16,14,24,9.30
2013,12,16,14,25,9.30
2013,12,16,14,26,9.30
2013,12,16,14,27,9.30
2013,12,16,14,28,9.30
2013,12,16,14,29,9.30
2013,12,16,14,30,9.30
2013,12,16,14,31,9.30
2013,12,16,14,32,9.30
2013,12,16,14,33,9.30
2013,12,16,14,34,9.30
2013,12,16,14,35,9.30
2013,12,16,14,36,9.20
2013,12,16,14,37,9.20
2013,12,16,14,38,9.20
2013,12,16,14,39,9.20
2013,12,16,14,40,9.20
2013,12,16,14,41,9.20
2013,12,16,14,42,9.20
2013,12,16,14,43,9.20
2013,12,16,14,44,9.20
2013,12,16,14,45,9.20
2013,12,16,14,46,9.20
2013,12,16,14,47,9.20
2013,12,16,14,48,9.20
2013,12,16,14,49,9.20
2013,12,16,14,50,9.20
2013,12,16,14,51,9.20
2013,12,16,14,52,9.20
2013,12,16,14,53,9.20
2013,12,16,14,54,9.10
2013,12,16,14,55,9.10
2013,12,16,14,56,9.10
2013,12,16,14,57,9.10
2013,12,16,14,58,9.10
2013,12,16,14,59,9.10
2013,12,16,15,00,9.10
2013,12,16,15,01,9.10
2013,12,16,15,02,9.10
2013,12,16,15,03,9.00
2013,12,16,15,04,9.00
2013,12,16,15,05,9.00
2013,12,16,15,06,9.00
2013,12,16,15,07,9.00
2013,12,16,15,08,9.00
2013,12,16,15,09,9.00
2013,12,16,15,10,9.00
2013,12,16,15,11,9.00
2013,12,16,15,12,9.00
2013,12,16,15,13,9.00
2013,12,16,15,14,9.00
2013,12,16,15,15,9.00
2013,12,16,15,16,8.90
2013,12,16,15,17,8.90
2013,12,16,15,18,8.90
2013,12,16,15,19,8.90
2013,12,16,15,20,8.90
2013,12,16,15,21,8.90
2013,12,16,15,22,8.90
2013,12,16,15,23,8.90
2013,12,16,15,24,8.90
2013,12,16,15,25,8.90
2013,12,16,15,26,8.90
2013,12,16,15,27,8.90
2013,12,16,15,28,8.90
2013,12,16,15,29,8.90
2013,12,16,15,30,8.90
2013,12,16,15,31,8.90
2013,12,16,15,32,8.80
2013,12,16,15,33,8.80
2013,12,16,15,34,8.80
2013,12,16,15,35,8.80
2013,12,16,15,36,8.80
2013,12,16,15,37,8.80
2013,12,16,15,38,8.80
2013,12,16,15,39,8.80
2013,12,16,15,40,8.80
2013,12,16,15,41,8.80
2013,12,16,15,42,8.80
2013,12,16,15,43,8.80
2013,12,16,15,44,8.80
2013,12,16,15,45,8.80
2013,12,16,15,46,8.80
2013,12,16,15,47,8.70
2013,12,16,15,48,8.70
2013,12,16,15,49,8.70
2013,12,16,15,50,8.70
2013,12,16,15,51,8.70
2013,12,16,15,52,8.70
2013,12,16,15,53,8.70
2013,12,16,15,54,8.70
2013,12,16,15,55,8.70
2013,12,16,15,56,8.70
2013,12,16,15,57,8.70
2013,12,16,15,58,8.70
2013,12,16,15,59,8.70
2013,12,16,16,00,8.70
2013,12,16,16,01,8.70
2013,12,16,16,02,8.70
2013,12,16,16,03,8.60
2013,12,16,16,04,8.60
2013,12,16,16,05,8.60
2013,12,16,16,06,8.60
2013,12,16,16,07,8.60
2013,12,16,16,08,8.60
2013,12,16,16,09,8.60
2013,12,16,16,10,8.60
2013,12,16,16,11,8.60
2013,12,16,16,12,8.60
2013,12,16,16,13,8.60
2013,12,16,16,14,8.50
2013,12,16,16,15,8.50
2013,12,16,16,16,8.50
2013,12,16,16,17,8.50
2013,12,16,16,18,8.40
2013,12,16,16,19,8.40
2013,12,16,16,20,8.40
2013,12,16,16,21,8.40
2013,12,16,16,22,8.40
2013,12,16,16,23,8.40
2013,12,16,16,24,8.30
2013,12,16,16,25,8.30
2013,12,16,16,26,8.30
2013,12,16,16,27,8.30
2013,12,16,16,28,8.30
2013,12,16,16,29,8.30
2013,12,16,16,30,8.30
2013,12,16,16,31,8.30
2013,12,16,16,32,8.30
2013,12,16,16,33,8.30
2013,12,16,16,34,8.20
2013,12,16,16,35,8.20
2013,12,16,16,36,8.20
2013,12,16,16,37,8.20
2013,12,16,16,38,8.20
2013,12,16,16,39,8.10
2013,12,16,16,40,8.10
2013,12,16,16,41,8.10
2013,12,16,16,42,8.10
2013,12,16,16,43,8.10
2013,12,16,16,44,8.10
2013,12,16,16,45,8.00
2013,12,16,16,46,8.00
2013,12,16,16,47,8.00
2013,12,16,16,48,8.00
2013,12,16,16,49,8.00
2013,12,16,16,50,7.90
2013,12,16,16,51,7.90
2013,12,16,16,52,7.90
2013,12,16,16,53,7.90
2013,12,16,16,54,7.90
2013,12,16,16,55,7.90
2013,12,16,16,56,7.90
2013,12,16,16,57,7.90
2013,12,16,16,58,7.80
2013,12,16,16,59,7.80
2013,12,16,17,00,7.80
2013,12,16,17,01,7.80
2013,12,16,17,02,7.80
2013,12,16,17,03,7.80
2013,12,16,17,04,7.80
2013,12,16,17,05,7.80
2013,12,16,17,06,7.80
2013,12,16,17,07,7.80
2013,12,16,17,08,7.80
2013,12,16,17,09,7.80
2013,12,16,17,10,7.80
2013,12,16,17,11,7.80
2013,12,16,17,12,7.80
2013,12,16,17,13,7.70
2013,12,16,17,14,7.70
2013,12,16,17,15,7.70
2013,12,16,17,16,7.70
2013,12,16,17,17,7.70
2013,12,16,17,18,7.70
2013,12,16,17,19,7.70
2013,12,16,17,20,7.70
2013,12,16,17,21,7.70
2013,12,16,17,22,7.70
2013,12,16,17,23,7.60
2013,12,16,17,24,7.60
2013,12,16,17,25,7.60
2013,12,16,17,26,7.60
2013,12,16,17,27,7.60
2013,12,16,17,28,7.60
2013,12,16,17,29,7.60
2013,12,16,17,30,7.50
2013,12,16,17,31,7.50
2013,12,16,17,32,7.50
2013,12,16,17,33,7.50
2013,12,16,17,34,7.40
2013,12,16,17,35,7.40
2013,12,16,17,36,7.40
2013,12,16,17,37,7.40
2013,12,16,17,38,7.30
2013,12,16,17,39,7.30
2013,12,16,17,40,7.30
2013,12,16,17,41,7.30
2013,12,16,17,42,7.30
2013,12,16,17,43,7.30
2013,12,16,17,44,7.30
2013,12,16,17,45,7.30
2013,12,16,17,46,7.20
2013,12,16,17,47,7.20
2013,12,16,17,48,7.20
2013,12,16,17,49,7.20
2013,12,16,17,50,7.20
2013,12,16,17,51,7.20
2013,12,16,17,52,7.20
2013,12,16,17,53,7.20
2013,12,16,17,54,7.20
2013,12,16,17,55,7.20
2013,12,16,17,56,7.20
2013,12,16,17,57,7.20
2013,12,16,17,58,7.20
2013,12,16,17,59,7.20
2013,12,16,18,00,7.20
2013,12,16,18,01,7.20
2013,12,16,18,02,7.20
2013,12,16,18,03,7.20
2013,12,16,18,04,7.20
2013,12,16,18,05,7.20
2013,12,16,18,06,7.20
2013,12,16,18,07,7.20
2013,12,16,18,08,7.20
2013,12,16,18,09,7.20
2013,12,16,18,10,7.20
2013,12,16,18,11,7.20
2013,12,16,18,12,7.20
2013,12,16,18,13,7.20
2013,12,16,18,14,7.20
2013,12,16,18,15,7.20
2013,12,16,18,16,7.10
2013,12,16,18,17,7.20
2013,12,16,18,18,7.20
2013,12,16,18,19,7.20
2013,12,16,18,20,7.10
2013,12,16,18,21,7.10
2013,12,16,18,22,7.10
2013,12,16,18,23,7.10
2013,12,16,18,24,7.10
2013,12,16,18,25,7.10
2013,12,16,18,26,7.10
2013,12,16,18,27,7.10
2013,12,16,18,28,7.10
2013,12,16,18,29,7.10
2013,12,16,18,30,7.10
2013,12,16,18,31,7.10
2013,12,16,18,32,7.10
2013,12,16,18,33,7.10
2013,12,16,18,34,7.10
2013,12,16,18,35,7.10
2013,12,16,18,36,7.10
2013,12,16,18,37,7.10
2013,12,16,18,38,7.10
2013,12,16,18,39,7.10
2013,12,16,18,40,7.10
2013,12,16,18,41,7.10
2013,12,16,18,42,7.00
2013,12,16,18,43,7.00
2013,12,16,18,44,7.00
2013,12,16,18,45,7.00
2013,12,16,18,46,7.00
2013,12,16,18,47,7.00
2013,12,16,18,48,7.00
2013,12,16,18,49,7.00
2013,12,16,18,50,7.00
2013,12,16,18,51,7.00
2013,12,16,18,52,6.90
2013,12,16,18,53,6.90
2013,12,16,18,54,6.90
2013,12,16,18,55,6.90
2013,12,16,18,56,6.90
2013,12,16,18,57,6.90
2013,12,16,18,58,6.90
2013,12,16,18,59,6.90
2013,12,16,19,00,6.90
2013,12,16,19,01,6.90
2013,12,16,19,02,6.90
2013,12,16,19,03,6.90
2013,12,16,19,04,6.90
2013,12,16,19,05,6.90
2013,12,16,19,06,6.90
2013,12,16,19,07,6.90
2013,12,16,19,08,6.90
2013,12,16,19,09,6.90
2013,12,16,19,10,6.80
2013,12,16,19,11,6.90
2013,12,16,19,12,6.90
2013,12,16,19,13,6.80
2013,12,16,19,14,6.80
2013,12,16,19,15,6.80
2013,12,16,19,16,6.90
2013,12,16,19,17,6.90
2013,12,16,19,18,6.90
2013,12,16,19,19,6.90
2013,12,16,19,20,6.90
2013,12,16,19,21,6.90
2013,12,16,19,22,6.90
2013,12,16,19,23,6.90
2013,12,16,19,24,6.90
2013,12,16,19,25,6.90
2013,12,16,19,26,6.90
2013,12,16,19,27,6.90
2013,12,16,19,28,6.90
2013,12,16,19,29,6.90
2013,12,16,19,30,6.90
2013,12,16,19,31,6.90
2013,12,16,19,32,6.90
2013,12,16,19,33,6.90
2013,12,16,19,34,6.90
2013,12,16,19,35,6.90
2013,12,16,19,36,6.90
2013,12,16,19,37,7.00
2013,12,16,19,38,7.00
2013,12,16,19,39,7.00
2013,12,16,19,40,7.00
2013,12,16,19,41,7.00
2013,12,16,19,42,7.00
2013,12,16,19,43,7.00
2013,12,16,19,44,7.00
2013,12,16,19,45,7.00
2013,12,16,19,46,7.00
2013,12,16,19,47,7.00
2013,12,16,19,48,7.00
2013,12,16,19,49,7.00
2013,12,16,19,50,7.00
2013,12,16,19,51,7.00
2013,12,16,19,52,7.00
2013,12,16,19,53,7.00
2013,12,16,19,54,7.00
2013,12,16,19,55,7.00
2013,12,16,19,56,7.00
2013,12,16,19,57,7.00
2013,12,16,19,58,7.00
2013,12,16,19,59,7.00
2013,12,16,20,00,7.00
2013,12,16,20,01,7.00
2013,12,16,20,02,7.00
2013,12,16,20,03,7.00
2013,12,16,20,04,7.00
2013,12,16,20,05,7.00
2013,12,16,20,06,7.00
2013,12,16,20,07,7.00
2013,12,16,20,08,7.00
2013,12,16,20,09,7.00
2013,12,16,20,10,7.00
2013,12,16,20,11,7.00
2013,12,16,20,12,7.00
2013,12,16,20,13,7.00
2013,12,16,20,14,7.00
2013,12,16,20,15,7.00
2013,12,16,20,16,7.00
2013,12,16,20,17,6.90
2013,12,16,20,18,6.90
2013,12,16,20,19,6.90
2013,12,16,20,20,6.90
2013,12,16,20,21,6.90
2013,12,16,20,22,6.90
2013,12,16,20,23,6.90
2013,12,16,20,24,6.90
2013,12,16,20,25,6.90
2013,12,16,20,26,6.90
2013,12,16,20,27,7.00
2013,12,16,20,28,7.00
2013,12,16,20,29,7.00
2013,12,16,20,30,7.00
2013,12,16,20,31,7.00
2013,12,16,20,32,7.00
2013,12,16,20,33,7.00
2013,12,16,20,34,6.90
2013,12,16,20,35,7.00
2013,12,16,20,36,7.00
2013,12,16,20,37,6.90
2013,12,16,20,38,6.90
2013,12,16,20,39,6.90
2013,12,16,20,40,6.90
2013,12,16,20,41,6.90
2013,12,16,20,42,7.00
2013,12,16,20,43,7.00
2013,12,16,20,44,7.00
2013,12,16,20,45,7.00
2013,12,16,20,46,7.00
2013,12,16,20,47,7.00
2013,12,16,20,48,7.00
2013,12,16,20,49,6.90
2013,12,16,20,50,6.90
2013,12,16,20,51,6.90
2013,12,16,20,52,6.90
2013,12,16,20,53,6.90
2013,12,16,20,54,6.90
2013,12,16,20,55,6.90